Regional Weather Roundup
Issued by NWS Wilmington, NC

Home | Current Version | Previous Version | Text Only | Print | Product List | Glossary On
Versions: 1 2 3 4 5 6 7 8 9 10 11 12 13 14 15 16 17 18 19 20 21 22 23 24 25 26 27 28 29 30 31 32 33 34 35 36 37 38 39 40 41 42 43 44 45 46 47 48 49 50
000
ASUS42 KILM 270810
RWRILM
RWRILM
REGIONAL HOURLY WEATHER ROUNDUP
NATIONAL WEATHER SERVICE WILMINGTON NC
300 AM EST TUE JAN 27 2015

NOTE: "FAIR" INDICATES FEW OR NO CLOUDS BELOW 12,000 FEET WITH NO
SIGNIFICANT WEATHER AND/OR OBSTRUCTIONS TO VISIBILITY.

...............WFO WILMINGTON COUNTY WARNING AREA...............

......COASTAL NC AND SC COUNTIES......

CITY           SKY/WX    TMP DP  RH WIND       PRES   REMARKS
WILMINGTON     LGT RAIN  45  40  82 NW13      29.68R
SOUTHPORT      CLOUDY    45  42  89 NW10      29.69R
N MYRTLE BEACH PTCLDY    44  35  70 NW6       29.70S
MYRTLE BEACH   CLOUDY    45  36  70 W7        29.74R

......INLAND NC AND SC COUNTIES.......

CITY           SKY/WX    TMP DP  RH WIND       PRES   REMARKS
LUMBERTON      CLOUDY    43  30  60 NW16      29.72R
ELIZABETHTOWN  CLOUDY    44  34  70 NW9       29.70R
WHITEVILLE     CLOUDY    43  33  67 W3        29.70R
FLORENCE       CLEAR     40  26  57 NW12      29.76R WCI  33
DARLINGTON     MOCLDY    37  23  56 W9        29.78R WCI  31

....................REST OF NORTH CAROLINA......................

.........EASTERN NC.........

CITY           SKY/WX    TMP DP  RH WIND       PRES   REMARKS
CAPE HATTERAS  CLOUDY    40  37  89 NW10G23   29.61R WCI  33
JACKSONVILLE   CLOUDY    43  34  70 N9        29.67R
MOREHEAD CITY  CLOUDY    43  39  86 N15       29.64R
KENANSVILLE    CLOUDY    42  37  82 NW6       29.69R
NEW BERN       CLOUDY    44  36  73 NW10      29.66R
ELIZABETH CITY LGT RAIN  35  31  85 NW15      29.66R WCI  25

.........CENTRAL NC.........

CITY           SKY/WX    TMP DP  RH WIND       PRES   REMARKS
RALEIGH DURHAM LGT SNOW  34  30  85 NW7       29.72R FOG     WCI  28
ROCKY MOUNT    CLOUDY    38  31  76 N12       29.70S WCI  30
ROANOKE RAPIDS NOT AVBL
FAYETTEVILLE   CLOUDY    42  31  64 NW14      29.71R
HOFFMAN        MOCLDY    37  27  66 NW10G16   29.75R WCI  30

.........WESTERN NC.........

CITY           SKY/WX    TMP DP  RH WIND       PRES   REMARKS
CHARLOTTE      CLEAR     32  21  64 NW6       29.78R WCI  26
GREENSBORO     PTCLDY    30  21  69 NW7       29.73R WCI  23
HICKORY        NOT AVBL
BOONE          NOT AVBL
ASHEVILLE      NOT AVBL

.....................REST OF SOUTH CAROLINA.....................

.........EASTERN SC.........

CITY           SKY/WX    TMP DP  RH WIND       PRES   REMARKS
CHARLESTON     PTCLDY    39  30  70 W14G22    29.81R WCI  31
BEAUFORT MCAS  CLEAR     39  29  67 W14       29.85R WCI  31
HILTON HEAD    CLEAR     39  32  75 SW10      29.87R WCI  32

.........CENTRAL SC.........

CITY           SKY/WX    TMP DP  RH WIND       PRES   REMARKS
COLUMBIA       CLEAR     36  28  73 W7        29.81R WCI  30
ORANGEBURG     PTCLDY    37  27  67 W10       29.83R WCI  30
SUMTER SHAW    CLEAR     36  25  62 W8        29.78R WCI  30

.........WESTERN SC.........

CITY           SKY/WX    TMP DP  RH WIND       PRES   REMARKS
GREENVILLE     NOT AVBL
ROCK HILL      CLEAR     32  21  64 NW6       29.78S WCI  26
ANDERSON       CLEAR     33  24  69 W3        29.82F
CLEMSON        NOT AVBL
GREENWOOD      CLEAR     29  23  78 CALM      29.84R


...................COASTAL AND OFFSHORE REPORTS..................

................LOCAL PIERS AND NC RESERVE................


STATION/POSITION TIME  SKY/WX   TEMP    WIND        PRES    VSBY
                                AIR SEA DIR/SP/G
                 (UTC)          (F)     (DEG/KT/KT) (MB)    (MI)
JOHNY MRCER PIER 0800            45 54  310/ 14/ 18 1003.8S
NC RESRV MASNBRO 0700            46     250/  2     1005.0S
OCEAN CREST PIER 0800            45 52  250/ 13/ 15 1004.2R
SPRINGMAID  PIER 0800            44 51  290/  7/ 10 1006.1R


................COASTAL AND OFFSHORE BUOYS................


STATION/POSITION TIME  SKY/WX   TEMP    WIND        PRES    VSBY
                                AIR SEA DIR/SP/G
                 (UTC)          (F)     (DEG/KT/KT) (MB)    (MI)
DIMNDSHOAL 41025 0800            44 66  340/ 23/ 29 1001.0R
WVE H/P(F/S)=  5/ 4 WND WVE H/P(F/S)=  5/ 4 SWL H/P/D(F/S/D)=  2/180/ 8

CAPE LOOKOUT     0700            45     340/ 21/ 23 1002.7R
ONSLOW BAY 41036 NOT AVBL
5 WRITEBCH 41038 0700            47 52  320/ 19/ 25 1004.0R
MASONBORO  41110 0800               53                N/A
WVE H/P(F/S)=  3/ 7 WND WVE H/P(F/S)=  3/ 7

WILM HARBR 41108 0800               53                N/A
WVE H/P(F/S)=  5/ 8 WND WVE H/P(F/S)=  5/ 8

27WRITEBCH 41037 NOT AVBL
FRYING PAN 41013 0800            51 67  310/ 19/ 25 1004.4R
WVE H/P(F/S)=  7/ 8 WND WVE H/P(F/S)=  7/ 5 SWL H/P/D(F/S/D)=  3/210/ 8

SUNST NRSH 41024 0700            47     320/ 12/ 14   N/A
CAPRS NRSH 41029 0700            45     300/ 19/ 21   N/A
EDISTO     41004 0800            48 68  290/ 25/ 29 1006.6R
WVE H/P(F/S)=  8/ 7 WND WVE H/P(F/S)=  7/ 7 SWL H/P/D(F/S/D)=  2/13



..........OFFSHORE BUOYS BEYOND 100 NM OFFSHORE...........
.....IN A TRIANGLE---HAT TO BERMUDA TO BAHAMAS TO HAT.....


STATION/POSITION TIME  SKY/WX   TEMP    WIND        PRES    VSBY
                                AIR SEA DIR/SP/G
                 (UTC)          (F)     (DEG/KT/KT) (MB)    (MI)
150E HAT   41001 NOT AVBL
W BERMUDA  41048 0741            68 72  230/ 33/ 43  999.5F
WVE H/P(F/S)= 16/ 9 WND WVE H/P(F/S)= 16/ 9

ATLANTIC S 41049 0715            76 75  190/ 21/ 27 1011.7F
WVE H/P(F/S)=  9/ 7 WND WVE H/P(F/S)=  8/ 7

E BAHAMAS  41046 0720            78 79  200/ 23/ 27 1010.8F
WVE H/P(F/S)=  7/ 6 WND WVE H/P(F/S)=  7/ 6 SWL H/P/D(F/S/D)=  2/310/10

NE BAHAMAS 41047 0741            72 76  270/ 25/ 29 1007.1F
WVE H/P(F/S)= 13/10 WND WVE H/P(F/S)= 11/ 6 SWL H/P/D(F/S/D)=  8/270/10

120E CANVRL41010 0800            62 76  280/ 27/ 33 1009.5R
WVE H/P(F/S)= 13/ 9 WND WVE H/P(F/S)= 13/ 9


END


USA.gov is the U.S. government's official web portal to all federal, state and local government web resources and services.